GW3874 Weather Reports


time (UTC)temp
F
wind
direction
speed
knots
gust
knots
rain 1hr
in
rain 24hr
in
rain mn
in
humidity
%
barometer
mb
20260508090024 39 11 0.9 4.3 0.00 0.26 0.00 93 1002.1
20260508084528 39 352 0.9 4.3 0.00 0.27 0.00 94 1002.1
20260508083030 39 5 1.7 3.5 0.00 0.27 0.00 93 1002.0
20260508081516 38 276 0.0 1.7 0.00 0.28 0.00 93 1001.7
20260508080030 38 276 0.9 1.7 0.00 0.29 0.00 93 1001.7
20260508074526 38 248 0.0 1.7 0.00 0.29 0.00 93 1001.6
20260508073028 38 167 0.0 0.9 0.00 0.29 0.00 92 1001.7
20260508071531 38 167 0.9 2.6 0.00 0.30 0.00 93 1001.7
20260508070023 38 175 0.0 1.7 0.00 0.32 0.00 92 1001.7
20260508064539 37 175 0.0 0.9 0.00 0.33 0.00 92 1001.7
20260508063028 37 175 0.0 1.7 0.00 0.34 0.00 92 1001.7
20260508061534 37 227 0.0 1.7 0.00 0.37 0.00 91 1001.8
20260508060003 37 227 0.0 1.7 0.00 0.41 0.00 91 1001.9
20260508054504 37 213 0.0 1.7 0.00 0.44 0.00 91 1002.1
20260508053004 37 207 0.0 1.7 0.00 0.46 0.00 90 1002.1
20260508051504 37 171 0.0 1.7 0.00 0.47 0.00 90 1002.1
20260508050007 38 230 0.0 1.7 0.00 0.49 0.00 90 1002.1
20260508044502 38 173 0.0 0.9 0.00 0.50 0.00 89 1002.3
20260508043004 38 173 0.0 0.9 0.00 0.52 0.00 89 1002.3
20260508041504 39 171 0.0 3.5 0.00 0.54 0.00 89 1002.4
20260508040019 39 169 1.7 3.5 0.00 0.56 0.00 89 1002.3
20260508034506 40 169 0.9 1.7 0.00 0.58 0.56 90 1002.3
20260508033007 40 169 0.0 1.7 0.00 0.58 0.56 91 1002.4
20260508031511 40 169 0.0 1.7 0.00 0.60 0.56 91 1002.5
20260508030006 40 169 0.9 1.7 0.00 0.61 0.56 91 1002.5
20260508024518 40 169 0.0 1.7 0.00 0.61 0.56 91 1002.7
20260508023010 40 171 0.9 3.5 0.00 0.62 0.56 91 1002.7
20260508021509 40 336 0.9 1.7 0.00 0.64 0.56 91 1002.7
20260508020006 41 336 0.9 1.7 0.01 0.67 0.56 90 1002.7
20260508014506 41 336 0.0 3.5 0.01 0.68 0.56 88 1002.7
20260508013014 41 9 2.6 7.8 0.01 0.69 0.56 88 1002.8
20260508011510 42 332 2.6 12.2 0.01 0.69 0.56 86 1003.0
20260508010014 42 238 3.5 6.1 0.00 0.69 0.55 86 1003.2
20260508004507 43 348 0.0 1.7 0.00 0.69 0.55 82 1002.5
20260508003012 44 348 0.9 1.7 0.00 0.69 0.55 83 1002.4
20260508001516 44 350 0.9 2.6 0.00 0.70 0.55 81 1002.3
20260508000015 45 334 1.7 6.1 0.00 0.71 0.55 81 1002.4
20260507234527 45 323 0.9 2.6 0.00 0.72 0.55 83 1002.2
20260507233013 45 343 2.6 3.5 0.00 0.73 0.55 82 1002.1
20260507231510 45 274 0.0 4.3 0.00 0.75 0.55 87 1002.1
20260507230017 45 318 0.0 0.9 0.00 0.77 0.55 92 1002.1
20260507224518 44 318 0.0 2.6 0.17 0.79 0.55 91 1002.0
20260507223018 44 159 0.0 1.7 0.20 0.82 0.55 91 1001.7
20260507221506 45 142 2.6 13.0 0.21 0.84 0.55 88 1001.8
20260507220010 46 135 0.9 3.5 0.21 0.87 0.55 88 1001.4
20260507214515 49 180 0.0 1.7 0.04 0.73 0.38 84 1001.1
20260507213026 50 199 0.0 1.7 0.01 0.72 0.35 78 1001.2
20260507211520 51 92 0.9 3.5 0.00 0.73 0.34 74 1000.9
20260507210009 52 352 1.7 4.3 0.00 0.75 0.34 74 1000.8
20260507204512 52 169 1.7 3.5 0.00 0.77 0.34 74 1000.9
20260507203020 49 46 0.9 3.5 0.00 0.78 0.34 76 1000.8
20260507201524 49 5 3.5 9.6 0.00 0.81 0.34 73 1000.8
20260507200024 49 334 3.5 10.4 0.00 0.87 0.34 79 1000.8
20260507194533 49 339 3.5 9.6 0.00 0.90 0.34 79 1000.7
20260507193018 48 319 4.3 12.2 0.00 0.94 0.34 75 1000.9
20260507191524 50 278 6.1 11.3 0.00 0.97 0.34 70 1000.9
20260507190040 54 11 1.7 4.3 0.00 0.98 0.34 60 1000.3
20260507184510 54 158 0.9 6.1 0.00 0.99 0.34 61 1000.4
20260507183016 54 212 1.7 5.2 0.00 1.01 0.34 64 1000.6
20260507181520 54 200 2.6 7.0 0.00 1.02 0.34 58 1000.7
20260507180026 55 263 2.6 7.0 0.00 1.04 0.34 57 1000.8
20260507174529 54 296 1.7 5.2 0.00 1.05 0.34 58 1001.0
20260507173029 53 234 2.6 7.0 0.00 1.07 0.34 61 1000.9
20260507171517 53 260 3.5 9.6 0.00 1.09 0.34 58 1001.0
20260507170023 54 278 2.6 6.1 0.00 1.15 0.34 60 1001.0
20260507164507 53 203 0.9 6.1 0.00 1.20 0.34 61 1001.2
20260507163011 53 283 0.9 6.1 0.00 1.27 0.34 64 1001.3
20260507161516 54 217 1.7 7.8 0.00 1.27 0.34 63 1001.4
20260507160004 53 237 1.7 8.7 0.00 1.30 0.34 71 1001.6
20260507154504 52 185 2.6 7.0 0.00 1.33 0.34 75 1001.8
20260507153007 51 284 1.7 7.0 0.00 1.34 0.34 75 1002.0
20260507151516 50 246 2.6 6.1 0.00 1.34 0.34 76 1002.0
20260507150016 49 339 1.7 6.1 0.00 1.34 0.34 78 1001.9
20260507144504 49 40 1.7 6.1 0.00 1.34 0.34 80 1002.1
20260507143011 49 351 2.6 7.8 0.00 1.34 0.34 81 1002.3
20260507141516 48 225 2.6 7.8 0.00 1.34 0.34 87 1002.4
20260507140019 46 294 2.6 7.8 0.00 1.34 0.34 89 1002.4
20260507134520 45 277 1.7 6.1 0.00 1.34 0.34 89 1002.8
20260507133002 45 241 1.7 3.5 0.00 1.34 0.34 90 1002.5
20260507131516 44 301 4.3 7.8 0.00 1.34 0.34 89 1002.3
20260507130011 44 271 1.7 5.2 0.00 1.34 0.34 90 1002.7
20260507124520 43 309 1.7 6.1 0.00 1.34 0.34 92 1002.8
20260507123021 43 306 3.5 7.8 0.00 1.34 0.34 91 1002.7
20260507121508 43 289 2.6 6.1 0.00 1.34 0.34 93 1002.9
20260507120010 43 289 1.7 5.2 0.00 1.34 0.34 94 1002.7
20260507114515 43 312 0.9 5.2 0.00 1.34 0.34 94 1002.7
20260507113037 42 290 3.5 7.8 0.00 1.35 0.34 95 1002.2
20260507111525 42 305 1.7 5.2 0.00 1.36 0.34 95 1002.1
20260507110028 42 309 3.5 7.0 0.00 1.37 0.34 95 1002.4
20260507104513 42 285 1.7 3.5 0.01 1.37 0.34 96 1002.5
20260507103018 42 263 0.0 7.0 0.02 1.38 0.34 96 1002.7
20260507101520 42 310 1.7 6.1 0.02 1.39 0.34 96 1002.3
20260507100026 42 311 1.7 6.1 0.04 1.41 0.34 95 1002.0
20260507094533 42 304 1.7 7.0 0.04 1.41 0.33 95 1002.0
20260507093013 42 302 2.6 7.0 0.03 1.42 0.32 95 1001.9
20260507091523 42 309 2.6 8.7 0.04 1.43 0.32 95 1001.9